Year,Month,Day,Hour,Minute,Value (Times are PST for temperature in C)
2019,03,20,00,00,5.50
2019,03,20,00,01,5.50
2019,03,20,00,02,5.40
2019,03,20,00,03,5.40
2019,03,20,00,04,5.40
2019,03,20,00,05,5.40
2019,03,20,00,06,5.40
2019,03,20,00,07,5.40
2019,03,20,00,08,5.40
2019,03,20,00,09,5.30
2019,03,20,00,10,5.30
2019,03,20,00,11,5.30
2019,03,20,00,12,5.30
2019,03,20,00,13,5.20
2019,03,20,00,14,5.20
2019,03,20,00,15,5.20
2019,03,20,00,16,5.20
2019,03,20,00,17,5.20
2019,03,20,00,18,5.10
2019,03,20,00,19,5.10
2019,03,20,00,20,5.10
2019,03,20,00,21,5.00
2019,03,20,00,22,5.00
2019,03,20,00,23,5.00
2019,03,20,00,24,5.00
2019,03,20,00,25,5.10
2019,03,20,00,26,5.10
2019,03,20,00,27,5.10
2019,03,20,00,28,5.10
2019,03,20,00,29,5.10
2019,03,20,00,30,5.10
2019,03,20,00,31,5.10
2019,03,20,00,32,5.10
2019,03,20,00,33,5.10
2019,03,20,00,34,5.10
2019,03,20,00,35,5.10
2019,03,20,00,36,5.10
2019,03,20,00,37,5.10
2019,03,20,00,38,5.10
2019,03,20,00,39,5.10
2019,03,20,00,40,5.00
2019,03,20,00,41,5.00
2019,03,20,00,42,5.00
2019,03,20,00,43,5.10
2019,03,20,00,44,5.10
2019,03,20,00,45,5.10
2019,03,20,00,46,5.00
2019,03,20,00,47,5.00
2019,03,20,00,48,5.00
2019,03,20,00,49,4.90
2019,03,20,00,50,4.90
2019,03,20,00,51,4.90
2019,03,20,00,52,4.80
2019,03,20,00,53,4.80
2019,03,20,00,54,4.80
2019,03,20,00,55,4.80
2019,03,20,00,56,4.70
2019,03,20,00,57,4.70
2019,03,20,00,58,4.70
2019,03,20,00,59,4.60
2019,03,20,01,00,4.60
2019,03,20,01,01,4.60
2019,03,20,01,02,4.60
2019,03,20,01,03,4.50
2019,03,20,01,04,4.50
2019,03,20,01,05,4.50
2019,03,20,01,06,4.40
2019,03,20,01,07,4.40
2019,03,20,01,08,4.40
2019,03,20,01,09,4.30
2019,03,20,01,10,4.30
2019,03,20,01,11,4.30
2019,03,20,01,12,4.20
2019,03,20,01,13,4.20
2019,03,20,01,14,4.20
2019,03,20,01,15,4.20
2019,03,20,01,16,4.10
2019,03,20,01,17,4.10
2019,03,20,01,18,4.10
2019,03,20,01,19,4.10
2019,03,20,01,20,4.00
2019,03,20,01,21,4.00
2019,03,20,01,22,3.90
2019,03,20,01,23,3.90
2019,03,20,01,24,3.90
2019,03,20,01,25,3.90
2019,03,20,01,26,3.90
2019,03,20,01,27,3.80
2019,03,20,01,28,3.80
2019,03,20,01,29,3.80
2019,03,20,01,30,3.80
2019,03,20,01,31,3.80
2019,03,20,01,32,3.80
2019,03,20,01,33,3.80
2019,03,20,01,34,3.70
2019,03,20,01,35,3.70
2019,03,20,01,36,3.70
2019,03,20,01,37,3.70
2019,03,20,01,38,3.70
2019,03,20,01,39,3.70
2019,03,20,01,40,3.70
2019,03,20,01,41,3.70
2019,03,20,01,42,3.70
2019,03,20,01,43,3.70
2019,03,20,01,44,3.70
2019,03,20,01,45,3.70
2019,03,20,01,46,3.60
2019,03,20,01,47,3.60
2019,03,20,01,48,3.60
2019,03,20,01,49,3.60
2019,03,20,01,50,3.60
2019,03,20,01,51,3.60
2019,03,20,01,52,3.60
2019,03,20,01,53,3.60
2019,03,20,01,54,3.60
2019,03,20,01,55,3.60
2019,03,20,01,56,3.60
2019,03,20,01,57,3.60
2019,03,20,01,58,3.60
2019,03,20,01,59,3.60
2019,03,20,02,00,3.60
2019,03,20,02,01,3.60
2019,03,20,02,02,3.50
2019,03,20,02,03,3.50
2019,03,20,02,04,3.50
2019,03,20,02,05,3.50
2019,03,20,02,06,3.50
2019,03,20,02,07,3.50
2019,03,20,02,08,3.50
2019,03,20,02,09,3.50
2019,03,20,02,10,3.50
2019,03,20,02,11,3.50
2019,03,20,02,12,3.50
2019,03,20,02,13,3.50
2019,03,20,02,14,3.50
2019,03,20,02,15,3.50
2019,03,20,02,16,3.50
2019,03,20,02,17,3.50
2019,03,20,02,18,3.40
2019,03,20,02,19,3.40
2019,03,20,02,20,3.40
2019,03,20,02,21,3.40
2019,03,20,02,22,3.40
2019,03,20,02,23,3.40
2019,03,20,02,24,3.40
2019,03,20,02,25,3.40
2019,03,20,02,26,3.30
2019,03,20,02,27,3.30
2019,03,20,02,28,3.30
2019,03,20,02,29,3.30
2019,03,20,02,30,3.30
2019,03,20,02,31,3.20
2019,03,20,02,32,3.20
2019,03,20,02,33,3.20
2019,03,20,02,34,3.20
2019,03,20,02,35,3.20
2019,03,20,02,36,3.20
2019,03,20,02,37,3.20
2019,03,20,02,38,3.10
2019,03,20,02,39,3.10
2019,03,20,02,40,3.10
2019,03,20,02,41,3.10
2019,03,20,02,42,3.10
2019,03,20,02,43,3.10
2019,03,20,02,44,3.10
2019,03,20,02,45,3.10
2019,03,20,02,46,3.10
2019,03,20,02,47,3.10
2019,03,20,02,48,3.10
2019,03,20,02,49,3.10
2019,03,20,02,50,3.10
2019,03,20,02,51,3.10
2019,03,20,02,52,3.10
2019,03,20,02,53,3.10
2019,03,20,02,54,3.10
2019,03,20,02,55,3.10
2019,03,20,02,56,3.10
2019,03,20,02,57,3.10
2019,03,20,02,58,3.10
2019,03,20,02,59,3.10
2019,03,20,03,00,3.00
2019,03,20,03,01,3.00
2019,03,20,03,02,3.00
2019,03,20,03,03,2.90
2019,03,20,03,04,2.90
2019,03,20,03,05,2.90
2019,03,20,03,06,2.90
2019,03,20,03,07,2.90
2019,03,20,03,08,2.90
2019,03,20,03,09,2.90
2019,03,20,03,10,2.90
2019,03,20,03,11,2.90
2019,03,20,03,12,2.90
2019,03,20,03,13,2.80
2019,03,20,03,14,2.80
2019,03,20,03,15,2.80
2019,03,20,03,16,2.80
2019,03,20,03,17,2.80
2019,03,20,03,18,2.80
2019,03,20,03,19,2.80
2019,03,20,03,20,2.80
2019,03,20,03,21,2.80
2019,03,20,03,22,2.80
2019,03,20,03,23,2.80
2019,03,20,03,24,2.80
2019,03,20,03,25,2.80
2019,03,20,03,26,2.80
2019,03,20,03,27,2.80
2019,03,20,03,28,2.80
2019,03,20,03,29,2.80
2019,03,20,03,30,2.70
2019,03,20,03,31,2.70
2019,03,20,03,32,2.70
2019,03,20,03,33,2.70
2019,03,20,03,34,2.60
2019,03,20,03,35,2.60
2019,03,20,03,36,2.60
2019,03,20,03,37,2.60
2019,03,20,03,38,2.60
2019,03,20,03,39,2.60
2019,03,20,03,40,2.70
2019,03,20,03,41,2.70
2019,03,20,03,42,2.70
2019,03,20,03,43,2.70
2019,03,20,03,44,2.70
2019,03,20,03,45,2.70
2019,03,20,03,46,2.70
2019,03,20,03,47,2.70
2019,03,20,03,48,2.70
2019,03,20,03,49,2.70
2019,03,20,03,50,2.70
2019,03,20,03,51,2.70
2019,03,20,03,52,2.60
2019,03,20,03,53,2.60
2019,03,20,03,54,2.60
2019,03,20,03,55,2.60
2019,03,20,03,56,2.60
2019,03,20,03,57,2.60
2019,03,20,03,58,2.60
2019,03,20,03,59,2.60
2019,03,20,04,00,2.50
2019,03,20,04,01,2.50
2019,03,20,04,02,2.50
2019,03,20,04,03,2.50
2019,03,20,04,04,2.50
2019,03,20,04,05,2.40
2019,03,20,04,06,2.40
2019,03,20,04,07,2.40
2019,03,20,04,08,2.30
2019,03,20,04,09,2.30
2019,03,20,04,10,2.30
2019,03,20,04,11,2.30
2019,03,20,04,12,2.30
2019,03,20,04,13,2.30
2019,03,20,04,14,2.30
2019,03,20,04,15,2.30
2019,03,20,04,16,2.30
2019,03,20,04,17,2.30
2019,03,20,04,18,2.30
2019,03,20,04,19,2.30
2019,03,20,04,20,2.30
2019,03,20,04,21,2.30
2019,03,20,04,22,2.30
2019,03,20,04,23,2.30
2019,03,20,04,24,2.30
2019,03,20,04,25,2.30
2019,03,20,04,26,2.20
2019,03,20,04,27,2.20
2019,03,20,04,28,2.20
2019,03,20,04,29,2.20
2019,03,20,04,30,2.20
2019,03,20,04,31,2.20
2019,03,20,04,32,2.20
2019,03,20,04,33,2.20
2019,03,20,04,34,2.20
2019,03,20,04,35,2.20
2019,03,20,04,36,2.20
2019,03,20,04,37,2.20
2019,03,20,04,38,2.20
2019,03,20,04,39,2.20
2019,03,20,04,40,2.20
2019,03,20,04,41,2.20
2019,03,20,04,42,2.20
2019,03,20,04,43,2.10
2019,03,20,04,44,2.10
2019,03,20,04,45,2.10
2019,03,20,04,46,2.00
2019,03,20,04,47,2.00
2019,03,20,04,48,1.90
2019,03,20,04,49,1.90
2019,03,20,04,50,1.90
2019,03,20,04,51,1.80
2019,03,20,04,52,1.80
2019,03,20,04,53,1.80
2019,03,20,04,54,1.80
2019,03,20,04,55,1.80
2019,03,20,04,56,1.80
2019,03,20,04,57,1.80
2019,03,20,04,58,1.80
2019,03,20,04,59,1.90
2019,03,20,05,00,1.90
2019,03,20,05,01,1.90
2019,03,20,05,02,1.90
2019,03,20,05,03,1.90
2019,03,20,05,04,1.90
2019,03,20,05,05,1.80
2019,03,20,05,06,1.80
2019,03,20,05,07,1.80
2019,03,20,05,08,1.80
2019,03,20,05,09,1.80
2019,03,20,05,10,1.80
2019,03,20,05,11,1.80
2019,03,20,05,12,1.80
2019,03,20,05,13,1.70
2019,03,20,05,14,1.70
2019,03,20,05,15,1.70
2019,03,20,05,16,1.70
2019,03,20,05,17,1.70
2019,03,20,05,18,1.70
2019,03,20,05,19,1.70
2019,03,20,05,20,1.70
2019,03,20,05,21,1.70
2019,03,20,05,22,1.70
2019,03,20,05,23,1.70
2019,03,20,05,24,1.70
2019,03,20,05,25,1.60
2019,03,20,05,26,1.60
2019,03,20,05,27,1.60
2019,03,20,05,28,1.60
2019,03,20,05,29,1.60
2019,03,20,05,30,1.60
2019,03,20,05,31,1.60
2019,03,20,05,32,1.60
2019,03,20,05,33,1.70
2019,03,20,05,34,1.70
2019,03,20,05,35,1.70
2019,03,20,05,36,1.70
2019,03,20,05,37,1.70
2019,03,20,05,38,1.70
2019,03,20,05,39,1.70
2019,03,20,05,40,1.70
2019,03,20,05,41,1.70
2019,03,20,05,42,1.70
2019,03,20,05,43,1.70
2019,03,20,05,44,1.70
2019,03,20,05,45,1.70
2019,03,20,05,46,1.70
2019,03,20,05,47,1.70
2019,03,20,05,48,1.60
2019,03,20,05,49,1.60
2019,03,20,05,50,1.60
2019,03,20,05,51,1.60
2019,03,20,05,52,1.60
2019,03,20,05,53,1.60
2019,03,20,05,54,1.60
2019,03,20,05,55,1.50
2019,03,20,05,56,1.50
2019,03,20,05,57,1.40
2019,03,20,05,58,1.40
2019,03,20,05,59,1.40
2019,03,20,06,00,1.40
2019,03,20,06,01,1.40
2019,03,20,06,02,1.40
2019,03,20,06,03,1.40
2019,03,20,06,04,1.40
2019,03,20,06,05,1.40
2019,03,20,06,06,1.40
2019,03,20,06,07,1.40
2019,03,20,06,08,1.40
2019,03,20,06,09,1.40
2019,03,20,06,10,1.30
2019,03,20,06,11,1.30
2019,03,20,06,12,1.30
2019,03,20,06,13,1.30
2019,03,20,06,14,1.30
2019,03,20,06,15,1.30
2019,03,20,06,16,1.30
2019,03,20,06,17,1.30
2019,03,20,06,18,1.30
2019,03,20,06,19,1.30
2019,03,20,06,20,1.30
2019,03,20,06,21,1.30
2019,03,20,06,22,1.30
2019,03,20,06,23,1.30
2019,03,20,06,24,1.30
2019,03,20,06,25,1.20
2019,03,20,06,26,1.20
2019,03,20,06,27,1.20
2019,03,20,06,28,1.20
2019,03,20,06,29,1.20
2019,03,20,06,30,1.20
2019,03,20,06,31,1.20
2019,03,20,06,32,1.20
2019,03,20,06,33,1.20
2019,03,20,06,34,1.20
2019,03,20,06,35,1.10
2019,03,20,06,36,1.10
2019,03,20,06,37,1.10
2019,03,20,06,38,1.20
2019,03,20,06,39,1.20
2019,03,20,06,40,1.20
2019,03,20,06,41,1.10
2019,03,20,06,42,1.10
2019,03,20,06,43,1.10
2019,03,20,06,44,1.10
2019,03,20,06,45,1.10
2019,03,20,06,46,1.10
2019,03,20,06,47,1.10
2019,03,20,06,48,1.10
2019,03,20,06,49,1.10
2019,03,20,06,50,1.10
2019,03,20,06,51,1.10
2019,03,20,06,52,1.20
2019,03,20,06,53,1.20
2019,03,20,06,54,1.20
2019,03,20,06,55,1.20
2019,03,20,06,56,1.20
2019,03,20,06,57,1.20
2019,03,20,06,58,1.20
2019,03,20,06,59,1.20
2019,03,20,07,00,1.20
2019,03,20,07,01,1.20
2019,03,20,07,02,1.20
2019,03,20,07,03,1.20
2019,03,20,07,04,1.20
2019,03,20,07,05,1.20
2019,03,20,07,06,1.20
2019,03,20,07,07,1.10
2019,03,20,07,08,1.10
2019,03,20,07,09,1.10
2019,03,20,07,10,1.10
2019,03,20,07,11,1.10
2019,03,20,07,12,1.00
2019,03,20,07,13,1.00
2019,03,20,07,14,0.90
2019,03,20,07,15,0.90
2019,03,20,07,16,0.90
2019,03,20,07,17,0.90
2019,03,20,07,18,0.90
2019,03,20,07,19,0.90
2019,03,20,07,20,0.90
2019,03,20,07,21,0.90
2019,03,20,07,22,0.90
2019,03,20,07,23,0.90
2019,03,20,07,24,1.00
2019,03,20,07,25,1.00
2019,03,20,07,26,1.00
2019,03,20,07,27,1.00
2019,03,20,07,28,1.00
2019,03,20,07,29,1.10
2019,03,20,07,30,1.10
2019,03,20,07,31,1.10
2019,03,20,07,32,1.10
2019,03,20,07,33,1.10
2019,03,20,07,34,1.10
2019,03,20,07,35,1.10
2019,03,20,07,36,1.10
2019,03,20,07,37,1.10
2019,03,20,07,38,1.10
2019,03,20,07,39,1.10
2019,03,20,07,40,1.10
2019,03,20,07,41,1.10
2019,03,20,07,42,1.10
2019,03,20,07,43,1.10
2019,03,20,07,44,1.10
2019,03,20,07,45,1.10
2019,03,20,07,46,1.10
2019,03,20,07,47,1.10
2019,03,20,07,48,1.10
2019,03,20,07,49,1.10
2019,03,20,07,50,1.10
2019,03,20,07,51,1.10
2019,03,20,07,52,1.10
2019,03,20,07,53,1.10
2019,03,20,07,54,1.20
2019,03,20,07,55,1.20
2019,03,20,07,56,1.20
2019,03,20,07,57,1.20
2019,03,20,07,58,1.20
2019,03,20,07,59,1.30
2019,03,20,08,00,1.30
2019,03,20,08,01,1.30
2019,03,20,08,02,1.30
2019,03,20,08,03,1.40
2019,03,20,08,04,1.50
2019,03,20,08,05,1.50
2019,03,20,08,06,1.60
2019,03,20,08,07,1.70
2019,03,20,08,08,1.80
2019,03,20,08,09,1.80
2019,03,20,08,10,1.80
2019,03,20,08,11,1.80
2019,03,20,08,12,1.80
2019,03,20,08,13,1.80
2019,03,20,08,14,1.80
2019,03,20,08,15,1.80
2019,03,20,08,16,1.80
2019,03,20,08,17,1.90
2019,03,20,08,18,1.90
2019,03,20,08,19,1.90
2019,03,20,08,20,2.00
2019,03,20,08,21,2.00
2019,03,20,08,22,2.10
2019,03,20,08,23,2.20
2019,03,20,08,24,2.20
2019,03,20,08,25,2.30
2019,03,20,08,26,2.30
2019,03,20,08,27,2.40
2019,03,20,08,28,2.40
2019,03,20,08,29,2.50
2019,03,20,08,30,2.50
2019,03,20,08,31,2.60
2019,03,20,08,32,2.70
2019,03,20,08,33,2.70
2019,03,20,08,34,2.80
2019,03,20,08,35,2.80
2019,03,20,08,36,2.90
2019,03,20,08,37,2.90
2019,03,20,08,38,3.00
2019,03,20,08,39,3.00
2019,03,20,08,40,3.10
2019,03,20,08,41,3.10
2019,03,20,08,42,3.20
2019,03,20,08,43,3.20
2019,03,20,08,44,3.20
2019,03,20,08,45,3.30
2019,03,20,08,46,3.30
2019,03,20,08,47,3.30
2019,03,20,08,48,3.40
2019,03,20,08,49,3.40
2019,03,20,08,50,3.50
2019,03,20,08,51,3.50
2019,03,20,08,52,3.60
2019,03,20,08,53,3.60
2019,03,20,08,54,3.70
2019,03,20,08,55,3.70
2019,03,20,08,56,3.80
2019,03,20,08,57,3.90
2019,03,20,08,58,3.90
2019,03,20,08,59,4.00
2019,03,20,09,00,4.10
2019,03,20,09,01,4.10
2019,03,20,09,02,4.20
2019,03,20,09,03,4.30
2019,03,20,09,04,4.40
2019,03,20,09,05,4.40
2019,03,20,09,06,4.50
2019,03,20,09,07,4.60
2019,03,20,09,08,4.70
2019,03,20,09,09,4.80
2019,03,20,09,10,4.90
2019,03,20,09,11,5.00
2019,03,20,09,12,5.10
2019,03,20,09,13,5.20
2019,03,20,09,14,5.20
2019,03,20,09,15,5.30
2019,03,20,09,16,5.30
2019,03,20,09,17,5.40
2019,03,20,09,18,5.50
2019,03,20,09,19,5.60
2019,03,20,09,20,5.70
2019,03,20,09,21,5.80
2019,03,20,09,22,5.80
2019,03,20,09,23,5.90
2019,03,20,09,24,6.00
2019,03,20,09,25,6.10
2019,03,20,09,26,6.10
2019,03,20,09,27,6.20
2019,03,20,09,28,6.30
2019,03,20,09,29,6.40
2019,03,20,09,30,6.50
2019,03,20,09,31,6.60
2019,03,20,09,32,6.70
2019,03,20,09,33,6.80
2019,03,20,09,34,6.90
2019,03,20,09,35,7.00
2019,03,20,09,36,7.10
2019,03,20,09,37,7.20
2019,03,20,09,38,7.30
2019,03,20,09,39,7.40
2019,03,20,09,40,7.50
2019,03,20,09,41,7.60
2019,03,20,09,42,7.60
2019,03,20,09,43,7.70
2019,03,20,09,44,7.80
2019,03,20,09,45,7.90
2019,03,20,09,46,7.90
2019,03,20,09,47,8.00
2019,03,20,09,48,8.10
2019,03,20,09,49,8.20
2019,03,20,09,50,8.30
2019,03,20,09,51,8.40
2019,03,20,09,52,8.50
2019,03,20,09,53,8.60
2019,03,20,09,54,8.70
2019,03,20,09,55,8.80
2019,03,20,09,56,8.90
2019,03,20,09,57,9.00
2019,03,20,09,58,9.20
2019,03,20,09,59,9.30
2019,03,20,10,00,9.40
2019,03,20,10,01,9.60
2019,03,20,10,02,9.60
2019,03,20,10,03,9.70
2019,03,20,10,04,9.80
2019,03,20,10,05,9.90
2019,03,20,10,06,10.00
2019,03,20,10,07,10.10
2019,03,20,10,08,10.20
2019,03,20,10,09,10.30
2019,03,20,10,10,10.50
2019,03,20,10,11,10.60
2019,03,20,10,12,10.80
2019,03,20,10,13,10.90
2019,03,20,10,14,11.00
2019,03,20,10,15,11.10
2019,03,20,10,16,11.30
2019,03,20,10,17,11.30
2019,03,20,10,18,11.40
2019,03,20,10,19,11.50
2019,03,20,10,20,11.60
2019,03,20,10,21,11.70
2019,03,20,10,22,11.70
2019,03,20,10,23,11.80
2019,03,20,10,24,11.80
2019,03,20,10,25,11.90
2019,03,20,10,26,12.00
2019,03,20,10,27,12.10
2019,03,20,10,28,12.10
2019,03,20,10,29,12.20
2019,03,20,10,30,12.30
2019,03,20,10,31,12.30
2019,03,20,10,32,12.30
2019,03,20,10,33,12.40
2019,03,20,10,34,12.40
2019,03,20,10,35,12.50
2019,03,20,10,36,12.50
2019,03,20,10,37,12.60
2019,03,20,10,38,12.60
2019,03,20,10,39,12.70
2019,03,20,10,40,12.70
2019,03,20,10,41,12.70
2019,03,20,10,42,12.80
2019,03,20,10,43,12.80
2019,03,20,10,44,12.90
2019,03,20,10,45,12.90
2019,03,20,10,46,12.90
2019,03,20,10,47,12.90
2019,03,20,10,48,13.00
2019,03,20,10,49,13.00
2019,03,20,10,50,13.00
2019,03,20,10,51,13.10
2019,03,20,10,52,13.10
2019,03,20,10,53,13.20
2019,03,20,10,54,13.30
2019,03,20,10,55,13.30
2019,03,20,10,56,13.30
2019,03,20,10,57,13.40
2019,03,20,10,58,13.40
2019,03,20,10,59,13.40
2019,03,20,11,00,13.40
2019,03,20,11,01,13.40
2019,03,20,11,02,13.50
2019,03,20,11,03,13.50
2019,03,20,11,04,13.50
2019,03,20,11,05,13.50
2019,03,20,11,06,13.60
2019,03,20,11,07,13.60
2019,03,20,11,08,13.60
2019,03,20,11,09,13.60
2019,03,20,11,10,13.70
2019,03,20,11,11,13.70
2019,03,20,11,12,13.70
2019,03,20,11,13,13.70
2019,03,20,11,14,13.70
2019,03,20,11,15,13.80
2019,03,20,11,16,13.80
2019,03,20,11,17,13.80
2019,03,20,11,18,13.90
2019,03,20,11,19,13.90
2019,03,20,11,20,13.90
2019,03,20,11,21,13.90
2019,03,20,11,22,14.00
2019,03,20,11,23,14.00
2019,03,20,11,24,14.10
2019,03,20,11,25,14.20
2019,03,20,11,26,14.20
2019,03,20,11,27,14.30
2019,03,20,11,28,14.30
2019,03,20,11,29,14.30
2019,03,20,11,30,14.40
2019,03,20,11,31,14.40
2019,03,20,11,32,14.40
2019,03,20,11,33,14.50
2019,03,20,11,34,14.50
2019,03,20,11,35,14.60
2019,03,20,11,36,14.60
2019,03,20,11,37,14.60
2019,03,20,11,38,14.70
2019,03,20,11,39,14.70
2019,03,20,11,40,14.80
2019,03,20,11,41,14.80
2019,03,20,11,42,14.80
2019,03,20,11,43,14.90
2019,03,20,11,44,14.90
2019,03,20,11,45,14.90
2019,03,20,11,46,14.90
2019,03,20,11,47,15.00
2019,03,20,11,48,15.00
2019,03,20,11,49,15.10
2019,03,20,11,50,15.20
2019,03,20,11,51,15.20
2019,03,20,11,52,15.30
2019,03,20,11,53,15.30
2019,03,20,11,54,15.30
2019,03,20,11,55,15.40
2019,03,20,11,56,15.40
2019,03,20,11,57,15.50
2019,03,20,11,58,15.50
2019,03,20,11,59,15.60
2019,03,20,12,00,15.70
2019,03,20,12,01,15.70
2019,03,20,12,02,15.80
2019,03,20,12,03,15.80
2019,03,20,12,04,15.90
2019,03,20,12,05,16.00
2019,03,20,12,06,16.00
2019,03,20,12,07,16.10
2019,03,20,12,08,16.20
2019,03,20,12,09,16.30
2019,03,20,12,10,16.30
2019,03,20,12,11,16.40
2019,03,20,12,12,16.40
2019,03,20,12,13,16.40
2019,03,20,12,14,16.40
2019,03,20,12,15,16.40
2019,03,20,12,16,16.50
2019,03,20,12,17,16.60
2019,03,20,12,18,16.70
2019,03,20,12,19,16.80
2019,03,20,12,20,16.90
2019,03,20,12,21,17.00
2019,03,20,12,22,17.10
2019,03,20,12,23,17.10
2019,03,20,12,24,17.10
2019,03,20,12,25,17.20
2019,03,20,12,26,17.20
2019,03,20,12,27,17.20
2019,03,20,12,28,17.20
2019,03,20,12,29,17.20
2019,03,20,12,30,17.20
2019,03,20,12,31,17.20
2019,03,20,12,32,17.20
2019,03,20,12,33,17.20
2019,03,20,12,34,17.20
2019,03,20,12,35,17.20
2019,03,20,12,36,17.20
2019,03,20,12,37,17.20
2019,03,20,12,38,17.20
2019,03,20,12,39,17.20
2019,03,20,12,40,17.20
2019,03,20,12,41,17.20
2019,03,20,12,42,17.30
2019,03,20,12,43,17.30
2019,03,20,12,44,17.40
2019,03,20,12,45,17.50
2019,03,20,12,46,17.60
2019,03,20,12,47,17.70
2019,03,20,12,48,17.80
2019,03,20,12,49,17.80
2019,03,20,12,50,17.90
2019,03,20,12,51,17.90
2019,03,20,12,52,18.00
2019,03,20,12,53,18.00
2019,03,20,12,54,18.00
2019,03,20,12,55,17.90
2019,03,20,12,56,17.80
2019,03,20,12,57,17.80
2019,03,20,12,58,17.70
2019,03,20,12,59,17.60
2019,03,20,13,00,17.50
2019,03,20,13,01,17.40
2019,03,20,13,02,17.20
2019,03,20,13,03,17.10
2019,03,20,13,04,17.00
2019,03,20,13,05,16.90
2019,03,20,13,06,16.80
2019,03,20,13,07,16.80
2019,03,20,13,08,16.70
2019,03,20,13,09,16.70
2019,03,20,13,10,16.70
2019,03,20,13,11,16.60
2019,03,20,13,12,16.60
2019,03,20,13,13,16.60
2019,03,20,13,14,16.50
2019,03,20,13,15,16.40
2019,03,20,13,16,16.40
2019,03,20,13,17,16.40
2019,03,20,13,18,16.40
2019,03,20,13,19,16.40
2019,03,20,13,20,16.30
2019,03,20,13,21,16.40
2019,03,20,13,22,16.40
2019,03,20,13,23,16.30
2019,03,20,13,24,16.40
2019,03,20,13,25,16.40
2019,03,20,13,26,16.40
2019,03,20,13,27,16.50
2019,03,20,13,28,16.50
2019,03,20,13,29,16.60
2019,03,20,13,30,16.60
2019,03,20,13,31,16.60
2019,03,20,13,32,16.70
2019,03,20,13,33,16.70
2019,03,20,13,34,16.70
2019,03,20,13,35,16.80
2019,03,20,13,36,16.80
2019,03,20,13,37,16.80
2019,03,20,13,38,16.80
2019,03,20,13,39,16.80
2019,03,20,13,40,16.80
2019,03,20,13,41,16.80
2019,03,20,13,42,16.80
2019,03,20,13,43,16.70
2019,03,20,13,44,16.70
2019,03,20,13,45,16.70
2019,03,20,13,46,16.70
2019,03,20,13,47,16.70
2019,03,20,13,48,16.70
2019,03,20,13,49,16.70
2019,03,20,13,50,16.80
2019,03,20,13,51,16.80
2019,03,20,13,52,16.80
2019,03,20,13,53,16.90
2019,03,20,13,54,16.90
2019,03,20,13,55,16.90
2019,03,20,13,56,17.00
2019,03,20,13,57,17.00
2019,03,20,13,58,17.10
2019,03,20,13,59,17.10
2019,03,20,14,00,17.10
2019,03,20,14,01,17.10
2019,03,20,14,02,17.20
2019,03,20,14,03,17.20
2019,03,20,14,04,17.20
2019,03,20,14,05,17.30
2019,03,20,14,06,17.30
2019,03,20,14,07,17.30
2019,03,20,14,08,17.30
2019,03,20,14,09,17.20
2019,03,20,14,10,17.10
2019,03,20,14,11,17.00
2019,03,20,14,12,17.00
2019,03,20,14,13,16.90
2019,03,20,14,14,16.90
2019,03,20,14,15,16.90
2019,03,20,14,16,16.90
2019,03,20,14,17,16.80
2019,03,20,14,18,16.80
2019,03,20,14,19,16.80
2019,03,20,14,20,16.80
2019,03,20,14,21,16.80
2019,03,20,14,22,16.80
2019,03,20,14,23,16.80
2019,03,20,14,24,16.80
2019,03,20,14,25,16.90
2019,03,20,14,26,16.90
2019,03,20,14,27,17.00
2019,03,20,14,28,17.00
2019,03,20,14,29,17.10
2019,03,20,14,30,17.10
2019,03,20,14,31,17.20
2019,03,20,14,32,17.20
2019,03,20,14,33,17.30
2019,03,20,14,34,17.30
2019,03,20,14,35,17.40
2019,03,20,14,36,17.40
2019,03,20,14,37,17.50
2019,03,20,14,38,17.50
2019,03,20,14,39,17.60
2019,03,20,14,40,17.60
2019,03,20,14,41,17.70
2019,03,20,14,42,17.80
2019,03,20,14,43,17.80
2019,03,20,14,44,17.80
2019,03,20,14,45,17.80
2019,03,20,14,46,17.70
2019,03,20,14,47,17.70
2019,03,20,14,48,17.70
2019,03,20,14,49,17.70
2019,03,20,14,50,17.70
2019,03,20,14,51,17.80
2019,03,20,14,52,17.80
2019,03,20,14,53,17.80
2019,03,20,14,54,17.80
2019,03,20,14,55,17.80
2019,03,20,14,56,17.80
2019,03,20,14,57,17.80
2019,03,20,14,58,17.80
2019,03,20,14,59,17.70
2019,03,20,15,00,17.70
2019,03,20,15,01,17.80
2019,03,20,15,02,17.80
2019,03,20,15,03,17.80
2019,03,20,15,04,17.80
2019,03,20,15,05,17.80
2019,03,20,15,06,17.90
2019,03,20,15,07,17.90
2019,03,20,15,08,17.90
2019,03,20,15,09,17.90
2019,03,20,15,10,17.90
2019,03,20,15,11,17.90
2019,03,20,15,12,18.00
2019,03,20,15,13,18.00
2019,03,20,15,14,18.00
2019,03,20,15,15,17.90
2019,03,20,15,16,17.80
2019,03,20,15,17,17.70
2019,03,20,15,18,17.70
2019,03,20,15,19,17.60
2019,03,20,15,20,17.50
2019,03,20,15,21,17.40
2019,03,20,15,22,17.40
2019,03,20,15,23,17.40
2019,03,20,15,24,17.30
2019,03,20,15,25,17.30
2019,03,20,15,26,17.30
2019,03,20,15,27,17.20
2019,03,20,15,28,17.10
2019,03,20,15,29,17.10
2019,03,20,15,30,17.10
2019,03,20,15,31,17.10
2019,03,20,15,32,17.00
2019,03,20,15,33,17.00
2019,03,20,15,34,17.00
2019,03,20,15,35,17.00
2019,03,20,15,36,16.90
2019,03,20,15,37,16.80
2019,03,20,15,38,16.70
2019,03,20,15,39,16.70
2019,03,20,15,40,16.60
2019,03,20,15,41,16.50
2019,03,20,15,42,16.50
2019,03,20,15,43,16.50
2019,03,20,15,44,16.40
2019,03,20,15,45,16.50
2019,03,20,15,46,16.50
2019,03,20,15,47,16.60
2019,03,20,15,48,16.60
2019,03,20,15,49,16.70
2019,03,20,15,50,16.80
2019,03,20,15,51,16.90
2019,03,20,15,52,17.00
2019,03,20,15,53,17.10
2019,03,20,15,54,17.30
2019,03,20,15,55,17.40
2019,03,20,15,56,17.50
2019,03,20,15,57,17.60
2019,03,20,15,58,17.70
2019,03,20,15,59,17.80
2019,03,20,16,00,17.80
2019,03,20,16,01,17.80
2019,03,20,16,02,17.90
2019,03,20,16,03,17.90
2019,03,20,16,04,17.90
2019,03,20,16,05,18.00
2019,03,20,16,06,18.00
2019,03,20,16,07,18.10
2019,03,20,16,08,18.20
2019,03,20,16,09,18.20
2019,03,20,16,10,18.30
2019,03,20,16,11,18.30
2019,03,20,16,12,18.40
2019,03,20,16,13,18.50
2019,03,20,16,14,18.50
2019,03,20,16,15,18.60
2019,03,20,16,16,18.60
2019,03,20,16,17,18.60
2019,03,20,16,18,18.70
2019,03,20,16,19,18.70
2019,03,20,16,20,18.70
2019,03,20,16,21,18.70
2019,03,20,16,22,18.70
2019,03,20,16,23,18.70
2019,03,20,16,24,18.70
2019,03,20,16,25,18.70
2019,03,20,16,26,18.80
2019,03,20,16,27,18.80
2019,03,20,16,28,18.80
2019,03,20,16,29,18.90
2019,03,20,16,30,18.90
2019,03,20,16,31,19.00
2019,03,20,16,32,19.00
2019,03,20,16,33,19.10
2019,03,20,16,34,19.10
2019,03,20,16,35,19.10
2019,03,20,16,36,19.10
2019,03,20,16,37,19.20
2019,03,20,16,38,19.20
2019,03,20,16,39,19.20
2019,03,20,16,40,19.30
2019,03,20,16,41,19.30
2019,03,20,16,42,19.30
2019,03,20,16,43,19.30
2019,03,20,16,44,19.30
2019,03,20,16,45,19.40
2019,03,20,16,46,19.40
2019,03,20,16,47,19.40
2019,03,20,16,48,19.40
2019,03,20,16,49,19.50
2019,03,20,16,50,19.60
2019,03,20,16,51,19.60
2019,03,20,16,52,19.60
2019,03,20,16,53,19.60
2019,03,20,16,54,19.60
2019,03,20,16,55,19.60
2019,03,20,16,56,19.60
2019,03,20,16,57,19.60
2019,03,20,16,58,19.60
2019,03,20,16,59,19.60
2019,03,20,17,00,19.60
2019,03,20,17,01,19.60
2019,03,20,17,02,19.60
2019,03,20,17,03,19.60
2019,03,20,17,04,19.60
2019,03,20,17,05,19.60
2019,03,20,17,06,19.60
2019,03,20,17,07,19.60
2019,03,20,17,08,19.60
2019,03,20,17,09,19.60
2019,03,20,17,10,19.60
2019,03,20,17,11,19.60
2019,03,20,17,12,19.60
2019,03,20,17,13,19.60
2019,03,20,17,14,19.60
2019,03,20,17,15,19.60
2019,03,20,17,16,19.70
2019,03,20,17,17,19.70
2019,03,20,17,18,19.70
2019,03,20,17,19,19.70
2019,03,20,17,20,19.70
2019,03,20,17,21,19.80
2019,03,20,17,22,19.80
2019,03,20,17,23,19.70
2019,03,20,17,24,19.70
2019,03,20,17,25,19.70
2019,03,20,17,26,19.60
2019,03,20,17,27,19.50
2019,03,20,17,28,19.40
2019,03,20,17,29,19.30
2019,03,20,17,30,19.30
2019,03,20,17,31,19.20
2019,03,20,17,32,19.10
2019,03,20,17,33,19.10
2019,03,20,17,34,19.00
2019,03,20,17,35,19.00
2019,03,20,17,36,18.90
2019,03,20,17,37,18.90
2019,03,20,17,38,18.90
2019,03,20,17,39,18.90
2019,03,20,17,40,18.90
2019,03,20,17,41,18.90
2019,03,20,17,42,18.90
2019,03,20,17,43,18.90
2019,03,20,17,44,18.90
2019,03,20,17,45,18.90